Temp_Advection
nan nan nan nan nan nan nan nan nan nan nan nan nan nan nan nan nan nan nan nan nan nan nan nan nan nan nan nan nan nan nan nan nan nan nan nan nan nan nan nan nan nan nan nan nan
nan -0 -0 -0 -0 -0 -0 -0 -0 -0 -0 -0 0 0 0 -0 -0 0 -1 0 0 -0 -0 -1 -1 -1 -1 -1 -2 -1 0 -2 -2 -1 -0 0 0 0 -0 0 0 1 0 0 nan
nan -0 -0 -0 -0 -0 -0 -0 -0 -0 -0 -0 -0 0 0 0 0 -0 0 0 -0 0 -0 -1 -1 -1 -1 -1 -1 -0 -1 -1 -0 -0 -0 0 1 0 -0 0 1 1 1 0 nan
nan -0 0 0 0 -0 -0 -0 -0 -0 -0 -1 -1 -0 -0 -1 -0 1 0 -0 -0 -0 -0 -0 -1 -1 -2 -1 -1 -1 -1 -0 -1 -0 -0 0 1 0 -1 0 1 1 1 1 nan
nan -0 -0 -0 0 0 -0 -0 -0 -0 -0 -0 -0 -0 -1 -1 -0 0 0 0 -0 -0 -1 -1 -1 -1 -1 -1 -1 -1 -0 -0 -0 -0 -0 0 0 0 -0 1 0 0 1 1 nan
nan -0 -0 -0 -0 0 -0 -0 -0 0 0 0 -0 0 -0 -2 0 0 0 0 -0 -0 -0 -0 -1 -1 -2 -1 -1 0 0 -0 -0 -0 0 0 1 1 -0 1 -0 0 0 0 nan
nan -0 -0 -0 -0 -0 -0 -0 -0 0 0 0 0 0 -1 -2 -0 0 0 -0 -0 -0 -1 -0 -0 -1 -1 -1 -0 -1 -1 0 -0 -0 0 0 1 0 -0 0 0 0 -0 0 nan
nan -0 -0 -0 -0 -0 -0 -0 -0 -0 0 0 0 -0 -1 -0 0 -0 -0 0 0 0 -0 -0 -0 -1 -1 -2 -2 -0 0 -0 -1 -0 0 0 0 -1 0 0 0 -0 0 -1 nan
nan -0 -0 -0 -0 -0 -0 -1 -0 -0 -0 0 -0 -1 -1 -0 -0 -0 -0 -0 0 0 0 -0 -0 -1 -1 -1 -1 -0 -0 -1 -1 -1 -0 0 -1 0 -0 -1 1 0 0 -1 nan
nan -0 -0 -0 -0 -0 -0 -0 -0 0 0 0 -0 -1 -1 -1 0 0 0 0 -0 -0 -0 -0 -1 -1 -1 -0 -1 -1 -2 -1 -1 -1 0 0 -0 0 -1 0 0 -0 -0 0 nan
nan -0 -0 -0 -0 -0 -1 -0 -0 0 -0 -2 -0 0 -0 -0 -0 -0 0 0 -0 -1 -1 -1 -0 -1 -1 -1 -1 -1 -0 -1 -2 -0 0 0 -0 -0 -0 -0 -1 0 -1 0 nan
nan -0 -0 -0 -0 -0 -1 -1 -0 -0 -1 -1 -1 -0 -0 -0 -1 -1 -0 -0 -1 -1 -1 -0 -1 -1 -0 -0 0 -0 -1 -2 -1 -0 0 0 0 0 0 0 1 0 -0 -1 nan
nan -0 -0 -0 -0 -0 0 -0 -0 -1 -1 -0 -0 -0 0 -0 -1 -1 -0 -0 -1 -0 -0 -1 -1 -0 1 0 -0 -0 -1 -2 -1 0 1 1 1 0 -0 1 1 1 0 -0 nan
nan -0 -0 -0 -0 -0 -0 0 0 -0 -1 0 -0 -0 -0 -0 -1 -0 -0 -0 -0 -0 -0 -1 -0 1 0 -0 -0 -1 -2 -1 -0 1 1 0 -0 -1 -0 1 1 0 -0 -1 nan
nan -0 -0 -0 -0 -0 -0 0 -0 -0 -1 0 -0 -0 -0 -1 -1 -0 -0 0 -0 -1 -0 -0 -0 0 -0 -1 -0 -1 -1 -0 -1 0 1 0 -1 -0 -0 0 -0 -1 -0 -1 nan
nan -0 -0 -0 -0 -0 -0 0 -0 -0 -0 -0 -1 -0 -0 -1 -1 -1 -0 -0 -1 0 0 -2 -1 -0 -0 -1 -0 -0 -0 0 0 1 1 -1 -0 -1 -1 -1 -1 -1 -2 -1 nan
nan -0 -1 -0 -1 -0 -0 -0 -0 -0 -0 -0 -1 -1 -1 -1 -2 -1 -0 -0 0 -0 -2 -1 0 -1 0 0 0 0 1 1 1 1 -1 -1 -0 -1 -1 -1 -1 -1 -1 1 nan
nan -0 -0 0 0 -0 -0 -0 0 -0 -1 -1 -0 -1 -0 -1 -1 -2 -1 1 -1 -1 -1 -0 -1 -3 -0 0 0 -0 0 -0 -1 -1 -2 -0 -0 -2 -2 -1 -0 0 0 1 nan
nan 0 -0 0 0 0 -0 -0 -0 -0 -0 -0 -1 -1 -1 -1 -0 -1 -0 -0 -0 -1 -1 -1 -1 -4 -0 -1 -0 0 -1 -1 -1 -0 0 -0 -1 -1 0 1 -0 0 0 2 nan
nan 0 -0 0 1 0 -0 -0 0 -0 -0 0 -0 -0 -0 -1 -1 -1 -0 -0 0 -0 0 -1 -2 -0 -1 0 -0 -1 -1 0 -0 0 -1 -0 0 -0 0 0 0 -0 0 0 nan
nan -0 -0 0 0 -1 -0 0 -0 -0 -0 -0 0 -0 -0 -0 -1 -0 0 0 0 0 -0 -0 -1 -1 -2 -0 -0 -1 -0 -1 0 0 -0 -0 -0 -0 -0 -0 0 0 1 -0 nan
nan -0 0 1 0 -0 0 0 0 0 0 0 0 0 0 -0 -0 0 0 -0 0 -0 -0 -0 -1 -1 -2 -1 -1 -1 -0 0 0 -1 -1 0 0 -0 0 1 -0 0 1 -0 nan
nan -1 0 0 -0 0 0 -0 0 -0 0 0 -0 -0 0 0 -0 -1 -0 1 -0 -1 -0 -0 -1 -1 -1 0 1 0 -0 -0 -1 -0 0 0 0 -0 -1 -1 1 2 1 -0 nan
nan -0 0 0 0 0 -0 -0 -0 -0 0 0 0 -0 -0 -1 0 -0 -1 -0 0 -0 0 -0 -1 -1 -1 -0 0 -1 -0 0 0 0 -0 1 -1 -1 -1 -1 -1 -1 1 -0 nan
nan 0 0 0 0 0 -0 -0 -0 -0 -0 -1 -0 -0 -0 -1 -1 -1 -1 -0 0 -0 0 0 -1 -1 -1 -1 -3 1 3 3 2 1 0 -2 -0 -0 -0 -1 -2 -1 1 0 nan
nan 0 0 0 0 -0 -0 -0 0 0 -0 -0 -0 -0 0 0 -0 -1 -0 -0 -0 0 -0 0 -0 -1 -1 -3 -1 -4 -6 -4 -2 -4 0 -2 -1 -0 -1 -1 -2 -2 -1 4 nan
nan nan nan nan nan nan nan nan nan nan nan nan nan nan nan nan nan nan nan nan nan nan nan nan nan nan nan nan nan nan nan nan nan nan nan nan nan nan nan nan nan nan nan nan nan
Wind_Speed
8 8 8 8 9 10 11 12 12 13 13 14 14 14 14 16 17 16 18 14 10 17 15 13 14 12 14 24 27 23 17 22 32 31 27 26 13 21 22 23 11 11 5 14 29
9 10 10 10 12 13 14 15 15 16 17 18 18 17 17 21 23 20 16 19 8 7 8 13 17 17 21 21 28 24 19 31 27 28 22 24 21 23 20 16 19 17 8 23 30
10 11 11 12 13 15 17 18 19 20 20 21 21 20 20 20 19 2 5 2 5 5 5 8 16 20 25 27 30 32 28 24 30 36 26 24 22 26 28 19 27 21 18 29 31
11 12 13 13 14 16 18 19 19 21 22 22 21 19 18 13 7 6 8 8 12 12 8 9 11 21 23 25 31 28 34 33 33 28 31 24 24 23 34 21 19 21 25 29 33
11 12 13 14 14 15 16 17 19 20 22 22 21 18 12 10 19 15 15 14 7 5 11 12 15 19 24 24 28 28 27 33 30 35 28 24 23 20 32 20 9 11 26 31 33
11 12 13 13 14 15 16 17 19 21 22 22 18 12 7 17 7 6 10 8 9 13 17 17 17 19 24 25 26 26 28 31 31 29 26 24 26 25 33 27 13 19 24 30 32
11 12 14 14 14 15 16 18 19 21 21 18 11 7 12 21 7 7 6 8 9 11 17 19 21 21 16 19 28 31 25 21 29 27 27 27 25 30 37 30 18 20 23 27 29
13 13 14 14 15 15 16 19 21 19 16 11 7 5 10 6 11 11 11 12 12 10 11 12 16 24 25 28 26 18 25 25 25 27 31 32 30 28 46 27 24 23 22 24 29
13 14 14 14 15 15 16 19 16 17 12 4 3 7 12 8 11 9 10 14 13 13 12 11 12 20 20 20 19 24 22 31 27 29 26 32 28 29 46 42 27 27 26 25 27
15 15 15 14 16 16 18 15 15 10 5 4 8 7 14 9 9 14 15 16 16 16 16 14 12 15 19 18 22 22 28 25 29 27 32 28 27 24 42 37 31 30 28 27 28
16 15 15 14 15 14 20 14 7 5 8 18 19 19 25 21 15 17 10 8 16 16 19 23 16 20 23 25 28 29 28 28 25 28 26 31 27 23 22 35 33 32 31 27 30
15 15 14 14 14 11 14 8 5 8 16 24 25 25 21 14 12 18 11 14 16 18 20 19 23 21 20 22 26 30 31 29 22 25 28 25 31 24 24 27 35 31 37 33 33
16 14 12 14 10 11 6 5 8 11 10 10 5 6 4 7 18 20 13 19 17 18 18 23 23 21 19 20 25 27 29 29 22 22 22 19 25 24 30 28 31 35 31 37 35
16 13 13 12 5 11 3 12 12 6 6 7 7 4 1 18 27 13 13 19 19 21 21 22 22 22 22 20 25 27 28 29 22 19 19 22 18 29 27 26 28 31 40 37 36
10 13 16 14 10 7 11 13 8 4 5 8 5 6 19 22 27 16 9 13 18 23 21 23 23 22 22 25 22 27 25 28 26 22 20 25 20 26 24 28 28 29 40 41 36
8 14 16 11 9 10 14 8 3 5 5 1 14 21 20 27 24 25 24 18 24 24 23 27 32 15 22 20 23 23 27 27 23 18 18 22 23 21 27 32 30 32 43 38 39
6 18 18 12 15 15 9 5 5 4 16 7 25 24 24 24 21 15 15 15 10 8 20 26 26 27 21 20 22 26 27 15 15 15 13 25 23 20 26 30 31 30 41 41 35
7 17 14 15 16 11 5 8 4 8 15 22 20 25 20 14 16 18 18 12 8 10 12 17 9 29 20 18 21 29 28 15 17 17 18 17 21 21 22 29 40 37 35 35 31
9 16 23 21 15 11 12 5 4 12 15 17 21 19 18 22 13 15 12 9 10 15 8 8 8 24 23 18 24 25 20 24 20 21 15 17 22 16 22 18 29 32 37 36 34
3 5 24 20 22 11 6 3 4 12 15 17 17 16 17 13 17 14 12 6 3 10 11 6 10 8 21 21 20 25 24 22 14 18 16 20 23 16 19 16 23 28 33 38 36
3 3 17 19 11 19 9 7 8 12 13 11 16 16 16 16 18 16 7 2 11 15 13 10 7 5 18 20 21 19 24 23 18 12 13 13 14 14 20 19 18 24 35 37 37
13 5 17 15 15 14 10 12 4 15 18 12 13 13 14 18 17 15 9 12 17 16 11 5 6 7 11 20 22 24 20 26 7 16 13 9 5 10 2 19 16 21 29 34 35
13 13 12 16 7 8 13 13 12 13 13 11 12 13 14 17 12 13 11 14 15 12 11 11 5 4 11 20 21 22 20 25 17 15 12 8 5 11 13 13 12 23 29 34 36
4 3 8 16 15 15 14 14 16 17 12 14 13 14 18 18 16 11 17 4 11 4 8 12 8 8 7 12 9 21 19 21 14 6 12 9 13 13 15 12 11 10 30 31 34
7 4 3 5 10 14 17 17 17 16 18 13 13 18 21 16 17 11 11 12 9 4 9 9 7 12 15 17 15 19 20 22 18 17 11 16 16 13 12 11 15 5 15 26 32
5 5 9 6 17 15 15 17 18 19 16 14 14 20 19 12 8 12 9 10 5 7 13 7 5 13 8 18 18 21 30 28 15 17 4 20 20 15 16 18 23 26 8 24 26
9 8 6 13 15 12 15 18 19 24 16 24 20 16 14 12 11 12 12 10 13 14 13 5 6 7 5 12 13 14 20 18 14 20 15 13 10 11 15 16 21 23 23 21 17
Wind_Direction
17 15 9 2 359 353 349 344 338 332 330 327 327 331 330 319 313 307 282 258 230 256 252 252 249 245 233 233 225 225 239 236 241 249 245 249 190 223 239 234 220 197 234 169 161
10 6 3 359 356 352 347 341 335 331 328 324 324 328 333 329 321 297 271 257 245 270 271 251 246 235 228 229 230 226 231 237 239 247 251 256 207 213 227 227 219 208 180 156 161
3 357 354 352 351 346 341 338 334 329 325 321 322 326 330 334 317 189 202 176 216 276 277 268 245 243 232 230 221 226 236 242 238 250 251 243 208 211 236 221 224 194 186 170 170
355 349 346 344 344 342 339 334 327 321 316 312 314 317 320 327 299 255 259 281 282 274 261 261 249 236 242 233 232 231 238 241 255 248 241 251 203 217 242 222 211 197 175 177 177
348 343 339 334 333 334 333 327 318 312 308 307 307 309 314 264 263 261 283 278 272 261 250 259 257 244 243 241 241 234 242 242 244 246 245 240 224 207 235 207 159 171 167 183 185
344 338 332 330 329 332 333 325 315 310 303 301 300 298 275 263 256 247 273 247 253 262 267 256 253 258 265 250 249 248 240 245 245 239 234 232 221 229 245 219 172 176 189 190 188
341 336 332 329 329 335 333 325 318 311 304 300 296 281 256 246 273 255 260 262 263 259 263 255 251 251 253 255 252 254 254 233 243 224 230 215 228 221 220 225 188 190 196 195 193
342 340 336 333 333 335 332 326 321 315 307 301 292 224 256 257 223 253 261 262 261 257 257 261 248 248 251 260 272 235 242 243 225 224 221 215 221 208 220 193 211 195 207 195 189
342 341 338 335 334 333 335 332 330 319 310 299 57 232 266 236 228 254 258 261 254 248 253 253 243 240 235 234 247 237 230 229 236 216 222 218 225 208 213 233 208 205 207 197 197
342 341 338 334 336 335 341 350 334 330 356 296 258 241 250 243 263 265 268 258 248 243 235 234 227 229 228 224 225 225 224 235 221 214 216 220 220 223 202 211 215 198 212 203 189
343 340 338 337 340 343 347 353 331 242 229 273 270 256 283 281 283 267 242 247 231 237 235 218 225 232 232 227 244 245 234 223 244 220 207 224 219 214 229 203 207 215 201 210 191
346 342 342 340 339 345 15 17 358 310 292 278 267 268 267 262 277 271 219 233 220 230 225 240 227 243 250 250 241 245 251 250 221 225 219 214 223 213 214 228 200 216 217 203 197
345 345 344 344 349 7 357 5 327 314 268 297 232 252 259 235 265 273 251 232 245 239 237 232 238 222 231 253 241 235 236 242 237 218 220 218 227 210 206 221 208 215 223 209 201
345 347 349 6 2 331 328 326 316 296 277 134 169 112 308 317 275 277 266 241 268 251 245 249 250 241 252 229 243 234 228 239 241 208 217 205 218 212 202 209 199 208 228 222 203
352 351 349 355 330 334 314 321 313 270 279 48 15 5 337 313 303 259 319 240 262 265 257 254 244 239 239 246 222 241 227 227 237 223 209 201 236 196 203 196 209 208 225 227 207
25 14 11 351 341 314 317 318 261 234 257 44 350 338 321 315 295 290 278 266 274 261 243 261 258 238 252 244 225 223 233 217 236 220 214 215 212 235 190 202 202 209 203 222 186
27 9 14 7 332 328 317 270 260 250 1 358 336 327 315 304 316 302 290 284 294 301 252 246 238 243 233 236 224 208 218 198 206 217 225 213 201 226 206 196 202 203 201 199 173
42 27 15 355 348 340 317 260 258 1 335 334 326 310 315 25 330 324 311 270 39 348 293 270 264 242 212 215 223 208 208 205 191 206 212 212 221 210 240 185 201 202 203 194 166
105 31 17 18 18 334 286 52 348 349 335 328 317 345 329 341 327 332 305 309 34 23 354 310 271 271 200 188 220 198 207 199 200 213 206 213 220 230 222 196 184 198 197 186 181
32 331 16 20 19 23 63 52 15 351 337 326 333 334 329 339 333 325 330 27 49 360 4 302 294 200 234 201 184 242 207 215 204 207 208 201 201 206 209 194 185 194 196 178 184
17 25 1 14 39 51 46 35 354 336 336 324 327 321 337 343 329 304 296 53 26 0 349 302 264 302 305 206 200 228 198 216 215 215 224 194 199 195 195 204 205 193 197 177 189
54 70 5 26 48 39 39 15 6 345 344 333 325 317 328 329 315 310 338 298 26 359 328 13 298 281 252 196 218 201 199 212 212 221 220 206 147 24 111 195 206 196 192 174 185
73 69 34 41 39 29 27 15 20 3 350 334 325 318 319 319 324 315 302 327 14 20 359 358 293 270 233 198 208 206 201 201 195 206 221 220 114 38 34 26 195 190 179 171 186
72 58 15 30 42 26 16 10 2 8 341 326 314 321 322 323 311 303 304 310 5 35 3 336 281 285 311 216 227 200 198 198 209 192 216 209 112 49 38 26 360 321 177 186 185
73 50 354 22 8 31 4 9 356 354 345 336 326 329 331 313 306 294 316 326 335 126 2 341 284 321 301 280 267 202 200 198 190 214 213 93 58 43 35 29 359 280 183 182 179
69 42 46 15 18 29 11 8 353 349 359 343 326 323 309 303 304 292 310 311 328 323 343 321 289 322 293 238 79 52 23 20 35 360 92 97 67 49 39 38 25 26 3 176 182
56 51 21 17 32 24 8 357 351 0 347 348 344 338 348 344 306 276 272 283 281 294 305 295 320 328 231 135 105 46 2 33 49 29 25 35 1 24 50 43 31 26 30 28 26
Height
1519 1517 1516 1515 1513 1512 1510 1508 1506 1505 1503 1502 1500 1499 1497 1495 1493 1491 1491 1490 1488 1485 1486 1487 1490 1491 1491 1490 1490 1490 1483 1474 1469 1465 1459 1461 1470 1475 1476 1476 1478 1480 1484 1488 1495
1519 1517 1516 1514 1512 1510 1508 1506 1504 1502 1501 1499 1498 1497 1495 1491 1487 1485 1487 1484 1485 1485 1485 1487 1487 1487 1486 1484 1484 1480 1471 1464 1463 1460 1457 1459 1465 1474 1472 1473 1474 1481 1487 1491 1495
1518 1517 1515 1513 1510 1508 1506 1503 1501 1499 1498 1496 1495 1494 1493 1490 1487 1482 1481 1482 1483 1484 1484 1486 1485 1484 1480 1479 1475 1472 1459 1461 1459 1458 1460 1458 1463 1472 1467 1468 1469 1476 1485 1491 1494
1518 1516 1514 1512 1509 1507 1505 1502 1500 1498 1497 1495 1494 1493 1491 1491 1484 1479 1480 1481 1481 1483 1485 1485 1483 1481 1476 1468 1469 1465 1462 1463 1459 1455 1457 1454 1459 1469 1465 1464 1466 1471 1481 1489 1493
1517 1515 1513 1512 1509 1507 1504 1501 1499 1497 1495 1492 1492 1491 1491 1492 1484 1475 1478 1478 1479 1482 1483 1482 1480 1476 1469 1466 1463 1456 1457 1458 1457 1455 1454 1457 1455 1463 1465 1462 1468 1472 1478 1485 1489
1516 1514 1512 1509 1507 1505 1502 1499 1497 1494 1492 1490 1489 1489 1489 1488 1479 1477 1476 1477 1478 1480 1480 1480 1478 1475 1468 1462 1457 1453 1455 1453 1452 1451 1452 1457 1455 1463 1466 1462 1466 1473 1480 1484 1486
1515 1513 1510 1508 1505 1502 1499 1497 1494 1491 1488 1486 1485 1485 1487 1480 1477 1476 1473 1474 1475 1475 1475 1474 1475 1474 1468 1463 1458 1456 1451 1449 1449 1448 1449 1456 1457 1453 1463 1461 1463 1472 1477 1482 1485
1513 1511 1508 1506 1503 1500 1497 1493 1490 1486 1484 1482 1482 1485 1480 1473 1474 1472 1472 1472 1472 1472 1472 1471 1471 1470 1468 1465 1456 1450 1450 1444 1438 1441 1443 1447 1446 1446 1454 1456 1462 1467 1474 1479 1482
1511 1508 1505 1502 1500 1498 1495 1491 1486 1483 1481 1481 1482 1485 1476 1468 1469 1469 1469 1468 1468 1468 1469 1469 1468 1465 1464 1460 1456 1445 1438 1435 1434 1431 1435 1433 1435 1437 1449 1451 1455 1460 1469 1472 1479
1509 1506 1503 1500 1498 1495 1492 1489 1485 1481 1479 1482 1482 1485 1469 1466 1465 1465 1464 1463 1463 1463 1464 1466 1463 1457 1454 1444 1442 1432 1428 1424 1424 1417 1426 1424 1428 1433 1436 1444 1455 1454 1462 1464 1473
1507 1504 1501 1499 1496 1493 1490 1490 1488 1484 1483 1478 1470 1465 1465 1464 1463 1459 1458 1458 1458 1459 1452 1453 1450 1442 1438 1437 1430 1426 1416 1416 1411 1414 1418 1421 1421 1427 1430 1434 1443 1444 1453 1459 1464
1506 1502 1499 1497 1495 1492 1491 1492 1493 1493 1477 1468 1464 1461 1461 1462 1460 1453 1454 1455 1450 1446 1443 1444 1433 1432 1432 1430 1428 1427 1420 1407 1402 1399 1409 1415 1416 1419 1429 1427 1433 1441 1445 1451 1457
1504 1501 1499 1496 1494 1493 1493 1492 1491 1489 1479 1457 1457 1457 1457 1460 1454 1449 1448 1445 1441 1436 1430 1426 1420 1423 1426 1428 1425 1420 1419 1410 1401 1398 1402 1414 1417 1416 1422 1424 1431 1438 1442 1444 1448
1503 1500 1498 1496 1495 1493 1493 1491 1488 1487 1470 1449 1451 1454 1456 1456 1444 1442 1439 1442 1435 1427 1422 1417 1414 1415 1416 1416 1419 1417 1411 1408 1398 1399 1410 1413 1415 1407 1410 1417 1423 1433 1439 1439 1441
1502 1500 1498 1494 1495 1493 1492 1488 1486 1487 1472 1452 1453 1457 1460 1458 1446 1438 1436 1434 1431 1422 1419 1410 1407 1407 1408 1407 1412 1409 1407 1406 1398 1395 1402 1406 1408 1388 1400 1414 1419 1424 1433 1433 1438
1502 1500 1496 1495 1494 1492 1487 1485 1487 1479 1462 1457 1463 1461 1458 1454 1444 1435 1434 1430 1426 1419 1417 1408 1403 1400 1404 1399 1401 1408 1407 1402 1397 1394 1403 1394 1399 1390 1381 1392 1406 1411 1418 1424 1429
1503 1500 1497 1496 1493 1486 1484 1485 1474 1472 1464 1459 1467 1464 1460 1447 1441 1433 1431 1427 1422 1425 1408 1400 1394 1391 1396 1395 1396 1402 1401 1405 1410 1403 1402 1384 1388 1379 1368 1381 1394 1400 1407 1418 1424
1503 1501 1499 1496 1490 1485 1484 1477 1478 1473 1476 1478 1474 1466 1453 1455 1452 1439 1430 1426 1444 1432 1419 1404 1405 1385 1383 1389 1394 1389 1391 1394 1407 1403 1392 1374 1380 1376 1362 1367 1384 1394 1402 1410 1423
1503 1504 1499 1494 1489 1487 1485 1487 1491 1491 1489 1484 1474 1464 1460 1458 1457 1446 1436 1439 1447 1443 1443 1415 1395 1385 1373 1380 1396 1383 1384 1380 1390 1381 1385 1381 1372 1363 1362 1362 1375 1388 1398 1407 1421
1506 1506 1502 1497 1494 1489 1487 1494 1493 1496 1494 1487 1478 1475 1470 1466 1458 1448 1446 1457 1452 1452 1452 1437 1413 1381 1374 1374 1383 1388 1380 1381 1376 1394 1393 1372 1366 1372 1364 1367 1370 1381 1389 1401 1417
1507 1505 1508 1500 1499 1498 1499 1499 1499 1498 1495 1490 1483 1479 1474 1468 1464 1456 1453 1458 1452 1450 1451 1447 1429 1394 1388 1370 1377 1386 1374 1374 1371 1369 1375 1374 1368 1356 1360 1364 1370 1376 1386 1397 1413
1509 1511 1512 1506 1503 1501 1501 1502 1502 1496 1494 1489 1486 1480 1476 1472 1466 1457 1466 1458 1452 1450 1451 1449 1435 1408 1387 1366 1368 1369 1369 1370 1382 1383 1364 1362 1368 1361 1357 1362 1369 1374 1383 1394 1409
1513 1514 1515 1511 1507 1505 1502 1500 1497 1494 1492 1489 1486 1480 1477 1474 1467 1457 1454 1449 1451 1453 1456 1454 1431 1404 1385 1369 1370 1366 1362 1366 1373 1374 1369 1378 1388 1377 1371 1371 1366 1374 1382 1393 1406
1515 1520 1519 1513 1509 1508 1502 1500 1495 1493 1490 1486 1482 1481 1478 1471 1465 1460 1451 1448 1450 1455 1457 1456 1438 1426 1411 1375 1377 1372 1365 1363 1367 1381 1373 1367 1386 1392 1389 1388 1384 1379 1382 1393 1403
1519 1522 1521 1518 1512 1508 1508 1502 1497 1491 1488 1483 1482 1478 1477 1474 1464 1458 1452 1448 1449 1454 1453 1456 1439 1422 1411 1399 1395 1366 1368 1366 1372 1377 1371 1394 1402 1406 1404 1401 1397 1388 1382 1391 1398
1522 1523 1520 1517 1513 1509 1508 1503 1497 1491 1489 1489 1482 1478 1474 1469 1466 1461 1458 1453 1453 1450 1452 1453 1440 1429 1412 1386 1382 1403 1408 1392 1388 1396 1371 1395 1405 1413 1416 1412 1409 1401 1390 1392 1397
1528 1527 1524 1519 1515 1513 1510 1504 1498 1494 1491 1487 1480 1472 1465 1465 1465 1464 1462 1462 1460 1457 1456 1451 1447 1436 1389 1384 1379 1406 1447 1436 1436 1433 1417 1428 1432 1421 1423 1423 1423 1418 1415 1410 1408